Location: Mohawk View
(42.7837°N, 73.7885°W)
Time: 13:18:56
(UTC+00:00)

ARGOS Delta rocket - Pass Details

Date: 17 June 2021
Orbit: 635 x 837 km, 96.5° (Epoch: 26 July)

Event Time Altitude Azimuth Distance (km) Brightness Sun altitude
Rises 06:12:59 0° 13° (NNE) 3,384 8.9 -21.5°
Reaches altitude 10° 06:15:23 10° 16° (NNE) 2,455 7.8 -21.4°
Maximum altitude 06:20:51 65° 99° (E) 916 4.3 -21.0°
Enters shadow 06:23:00 37° 168° (SSE) 1,283 4.7 -20.9°
